Regional Weather Roundup
Issued by NWS

Home | Current Version | Previous Version | Graphics & Text | Print | Product List | Glossary On
Versions: 1 2 3 4 5 6 7 8 9 10 11 12 13 14 15 16 17 18 19 20 21 22 23 24 25 26 27 28 29 30 31 32 33 34 35 36 37 38 39 40 41 42 43 44 45 46 47 48 49 50
000
ASUS45 KSLC 191310
RWRUT

UTAH REGIONAL WEATHER ROUNDUP
NATIONAL WEATHER SERVICE SALT LAKE CITY UT
700 AM MDT SUN OCT 19 2014

UTZ001>011-023>025-191400-

NORTHERN UTAH

CITY           SKY/WX    TMP DP  RH WIND       PRES   REMARKS
BRIGHAM CITY   CLEAR     41  34  75 CALM      30.09S
HILL AFB       CLEAR     47  31  53 E21       30.09S
LOGAN          CLEAR     35  31  85 CALM      30.12S
OGDEN          CLEAR     48  32  53 S5        30.08S
PROVO AIRPORT  CLEAR     39  32  75 SE3       30.11R
SALT LAKE CITY CLEAR     44  38  79 SE7       30.07S
VERNAL         CLEAR     37  30  75 CALM      30.16R
WENDOVER       PTCLDY    43  32  65 E3        30.08R
HEBER CITY     CLEAR     30  27  86 CALM      30.18R
WEST JORDAN    CLEAR     45  37  76 SW6       30.09S

$$

UTZ012>022-026-027-191400-

SOUTHERN/CENTRAL UTAH

CITY           SKY/WX    TMP DP  RH WIND       PRES   REMARKS
BLANDING       CLEAR     47  35  62 N7        30.19S
BRYCE CANYON   PTCLDY    31  28  89 W7        30.22R WCI  24
CEDAR CITY     CLEAR     40  37  89 CALM      30.09R
DELTA          CLEAR     42  33  69 NE8       30.08S
HANKSVILLE       N/A     43  32  65 CALM      30.11S
MILFORD        CLEAR     41  33  73 CALM      30.08R
MOAB/CYNLANDS  CLEAR     43  31  62 CALM      30.08R
PRICE          CLEAR     44  30  57 NE6       30.14S
ST GEORGE      SUNNY     57  36  44 CALM      29.98R
KANAB            N/A     48  34  57 NW14      30.10R

$$

REGIONAL REPORTS     COLORADO/ARIZONA

CITY           SKY/WX    TMP DP  RH WIND       PRES   REMARKS
CRAIG, CO      CLEAR     27  24  89 CALM      30.21R
GRAND JUNCTION CLOUDY    51  36  56 SE3       30.11R
RIFLE          CLOUDY    49  39  68 S3        30.16S
MONTROSE       MOCLDY    50  38  63 SE9       30.17S
CORTEZ         CLEAR     37  34  89 CALM      30.15R
PAGE, AZ       NOT AVBL
GRAND CANYON   MOCLDY    54  32  43 E8        30.13S
KINGMAN        CLEAR     49  42  77 CALM      29.94R
FLAGSTAFF      LGT RAIN  52  38  58 E12       30.17R

$$

REGIONAL REPORTS    NEVADA/IDAHO/WYOMING

CITY           SKY/WX    TMP DP  RH WIND       PRES   REMARKS
LAS VEGAS, NV  CLEAR     65  39  38 S7        29.85R
ELY            CLEAR     34  28  79 S8        30.14S WCI  27
ELKO           PTCLDY    35  21  56 E6        30.09S WCI  30
POCATELLO, ID  CLEAR     31  30  96 NE5       30.12S WCI  26
BURLEY         PTCLDY    35  32  88 N3        30.08R
EVANSTON, WY   PTCLDY    40  27  59 E5        30.20S
ROCK SPRINGS   PTCLDY    40  26  57 NW3       30.20R
KEMMERER       CLEAR     32  28  86 N9        30.22R WCI  24

$$


USA.gov is the U.S. government's official web portal to all federal, state and local government web resources and services.